Time,TemperatureF,DewpointF,PressureIn,WindDirection,WindDirectionDegrees,WindSpeedMPH,WindSpeedGustMPH,Humidity,HourlyPrecipIn,Conditions,Clouds,dailyrainin,SolarRadiationWatts/m^2,SoftwareType,DateUTC
2013-11-20 00:01:00,31.8,17.1,30.27,NNW,338,5.0,12.0,54,0.00,,,0.00,0,HR-IXPWINDi_r2_v1.2.,2013-11-20 05:01:00,
2013-11-20 00:06:00,31.7,17.0,30.27,NNW,338,6.0,12.0,54,0.00,,,0.00,0,HR-IXPWINDi_r2_v1.2.,2013-11-20 05:06:00,
2013-11-20 00:11:00,31.8,17.1,30.28,NW,309,3.0,12.0,54,0.00,,,0.00,0,HR-IXPWINDi_r2_v1.2.,2013-11-20 05:11:00,
2013-11-20 00:16:00,31.6,16.9,30.28,NW,313,14.0,14.0,54,0.00,,,0.00,0,HR-IXPWINDi_r2_v1.2.,2013-11-20 05:16:00,
2013-11-20 00:21:00,31.7,17.0,30.28,NNW,336,7.0,14.0,54,0.00,,,0.00,0,HR-IXPWINDi_r2_v1.2.,2013-11-20 05:21:00,
2013-11-20 00:26:00,31.5,16.8,30.28,NNW,333,5.0,14.0,54,0.00,,,0.00,0,HR-IXPWINDi_r2_v1.2.,2013-11-20 05:26:00,
2013-11-20 00:31:00,31.5,16.8,30.28,NNW,329,10.0,16.0,54,0.00,,,0.00,0,HR-IXPWINDi_r2_v1.2.,2013-11-20 05:31:00,
2013-11-20 00:36:00,31.7,16.5,30.28,NNW,335,13.0,17.0,53,0.00,,,0.00,0,HR-IXPWINDi_r2_v1.2.,2013-11-20 05:36:00,
2013-11-20 00:42:00,31.6,16.4,30.28,NNW,329,7.0,17.0,53,0.00,,,0.00,0,HR-IXPWINDi_r2_v1.2.,2013-11-20 05:42:00,
2013-11-20 00:47:00,31.6,16.4,30.29,NNW,336,9.0,17.0,53,0.00,,,0.00,0,HR-IXPWINDi_r2_v1.2.,2013-11-20 05:47:00,
2013-11-20 00:52:00,31.7,16.5,30.29,West,273,6.0,17.0,53,0.00,,,0.00,0,HR-IXPWINDi_r2_v1.2.,2013-11-20 05:52:00,
2013-11-20 00:57:00,31.6,16.4,30.29,NW,326,9.0,19.0,53,0.00,,,0.00,0,HR-IXPWINDi_r2_v1.2.,2013-11-20 05:57:00,
2013-11-20 01:02:00,31.7,16.5,30.29,NW,315,16.0,19.0,53,0.00,,,0.00,0,HR-IXPWINDi_r2_v1.2.,2013-11-20 06:02:00,
2013-11-20 01:08:00,31.7,16.5,30.30,NNW,341,11.0,20.0,53,0.00,,,0.00,0,HR-IXPWINDi_r2_v1.2.,2013-11-20 06:08:00,
2013-11-20 01:13:00,31.6,16.4,30.30,NW,313,7.0,20.0,53,0.00,,,0.00,0,HR-IXPWINDi_r2_v1.2.,2013-11-20 06:13:00,
2013-11-20 01:18:00,31.5,16.4,30.30,NNE,22,10.0,13.0,53,0.00,,,0.00,0,HR-IXPWINDi_r2_v1.2.,2013-11-20 06:18:00,
2013-11-20 01:23:00,31.6,16.4,30.30,North,350,6.0,15.0,53,0.00,,,0.00,0,HR-IXPWINDi_r2_v1.2.,2013-11-20 06:23:00,
2013-11-20 01:28:00,31.5,16.4,30.31,NNW,332,9.0,15.0,53,0.00,,,0.00,0,HR-IXPWINDi_r2_v1.2.,2013-11-20 06:28:00,
2013-11-20 01:33:00,31.5,16.4,30.30,NNW,342,7.0,14.0,53,0.00,,,0.00,0,HR-IXPWINDi_r2_v1.2.,2013-11-20 06:33:00,
2013-11-20 01:39:00,31.4,16.3,30.31,NNW,336,8.0,14.0,53,0.00,,,0.00,0,HR-IXPWINDi_r2_v1.2.,2013-11-20 06:39:00,
2013-11-20 01:44:00,31.4,16.3,30.31,NW,307,6.0,13.0,53,0.00,,,0.00,0,HR-IXPWINDi_r2_v1.2.,2013-11-20 06:44:00,
2013-11-20 01:49:00,31.3,16.2,30.31,NW,326,10.0,13.0,53,0.00,,,0.00,0,HR-IXPWINDi_r2_v1.2.,2013-11-20 06:49:00,
2013-11-20 01:54:00,31.3,16.2,30.31,NNW,329,8.0,18.0,53,0.00,,,0.00,0,HR-IXPWINDi_r2_v1.2.,2013-11-20 06:54:00,
2013-11-20 01:59:00,31.1,16.4,30.32,North,355,10.0,18.0,54,0.00,,,0.00,0,HR-IXPWINDi_r2_v1.2.,2013-11-20 06:59:00,
2013-11-20 02:04:00,31.1,16.4,30.32,NNE,22,3.0,13.0,54,0.00,,,0.00,0,HR-IXPWINDi_r2_v1.2.,2013-11-20 07:04:00,
2013-11-20 02:10:00,31.1,16.4,30.32,WNW,296,7.0,13.0,54,0.00,,,0.00,0,HR-IXPWINDi_r2_v1.2.,2013-11-20 07:10:00,
2013-11-20 02:15:00,31.2,16.5,30.32,WNW,286,10.0,13.0,54,0.00,,,0.00,0,HR-IXPWINDi_r2_v1.2.,2013-11-20 07:15:00,
2013-11-20 02:20:00,31.2,16.5,30.33,WNW,302,4.0,15.0,54,0.00,,,0.00,0,HR-IXPWINDi_r2_v1.2.,2013-11-20 07:20:00,
2013-11-20 02:25:00,31.0,16.3,30.33,NW,320,5.0,15.0,54,0.00,,,0.00,0,HR-IXPWINDi_r2_v1.2.,2013-11-20 07:25:00,
2013-11-20 02:30:00,31.0,16.3,30.33,NNW,345,7.0,10.0,54,0.00,,,0.00,0,HR-IXPWINDi_r2_v1.2.,2013-11-20 07:30:00,
2013-11-20 02:35:00,30.9,16.2,30.33,NW,313,7.0,11.0,54,0.00,,,0.00,0,HR-IXPWINDi_r2_v1.2.,2013-11-20 07:35:00,
2013-11-20 02:40:00,30.9,16.2,30.33,North,11,3.0,11.0,54,0.00,,,0.00,0,HR-IXPWINDi_r2_v1.2.,2013-11-20 07:40:00,
2013-11-20 02:45:00,30.8,16.1,30.33,NW,321,4.0,11.0,54,0.00,,,0.00,0,HR-IXPWINDi_r2_v1.2.,2013-11-20 07:45:00,
2013-11-20 02:51:00,30.9,16.2,30.34,NNW,339,6.0,12.0,54,0.00,,,0.00,0,HR-IXPWINDi_r2_v1.2.,2013-11-20 07:51:00,
2013-11-20 02:56:00,30.9,16.2,30.34,NW,323,5.0,12.0,54,0.00,,,0.00,0,HR-IXPWINDi_r2_v1.2.,2013-11-20 07:56:00,
2013-11-20 03:01:00,30.7,16.5,30.34,NNW,338,8.0,12.0,55,0.00,,,0.00,0,HR-IXPWINDi_r2_v1.2.,2013-11-20 08:01:00,
2013-11-20 03:06:00,30.7,16.5,30.34,NW,304,6.0,14.0,55,0.00,,,0.00,0,HR-IXPWINDi_r2_v1.2.,2013-11-20 08:06:00,
2013-11-20 03:11:00,30.7,16.5,30.34,NNW,333,8.0,14.0,55,0.00,,,0.00,0,HR-IXPWINDi_r2_v1.2.,2013-11-20 08:11:00,
2013-11-20 03:17:00,30.7,16.5,30.34,NW,305,4.0,15.0,55,0.00,,,0.00,0,HR-IXPWINDi_r2_v1.2.,2013-11-20 08:17:00,
2013-11-20 03:22:00,30.6,16.4,30.34,NW,307,9.0,15.0,55,0.00,,,0.00,0,HR-IXPWINDi_r2_v1.2.,2013-11-20 08:22:00,
2013-11-20 03:27:00,30.5,16.3,30.34,NNW,328,4.0,13.0,55,0.00,,,0.00,0,HR-IXPWINDi_r2_v1.2.,2013-11-20 08:27:00,
2013-11-20 03:32:00,30.5,16.7,30.34,NW,325,6.0,16.0,56,0.00,,,0.00,0,HR-IXPWINDi_r2_v1.2.,2013-11-20 08:32:00,
2013-11-20 03:37:00,30.5,16.7,30.35,NNW,339,5.0,16.0,56,0.00,,,0.00,0,HR-IXPWINDi_r2_v1.2.,2013-11-20 08:37:00,
2013-11-20 03:43:00,30.4,16.6,30.35,NNW,333,3.0,12.0,56,0.00,,,0.00,0,HR-IXPWINDi_r2_v1.2.,2013-11-20 08:43:00,
2013-11-20 03:48:00,30.3,16.9,30.36,NW,322,8.0,13.0,57,0.00,,,0.00,0,HR-IXPWINDi_r2_v1.2.,2013-11-20 08:48:00,
2013-11-20 03:53:00,30.3,16.9,30.36,NNW,334,3.0,13.0,57,0.00,,,0.00,0,HR-IXPWINDi_r2_v1.2.,2013-11-20 08:53:00,
2013-11-20 03:58:00,30.3,16.9,30.36,NNW,335,7.0,12.0,57,0.00,,,0.00,0,HR-IXPWINDi_r2_v1.2.,2013-11-20 08:58:00,
2013-11-20 04:03:00,30.3,16.9,30.36,NW,307,3.0,12.0,57,0.00,,,0.00,0,HR-IXPWINDi_r2_v1.2.,2013-11-20 09:03:00,
2013-11-20 04:09:00,30.2,17.2,30.36,North,5,4.0,9.0,58,0.00,,,0.00,0,HR-IXPWINDi_r2_v1.2.,2013-11-20 09:09:00,
2013-11-20 04:14:00,30.0,17.0,30.36,NNW,340,3.0,9.0,58,0.00,,,0.00,0,HR-IXPWINDi_r2_v1.2.,2013-11-20 09:14:00,
2013-11-20 04:19:00,29.9,16.9,30.36,NNW,334,4.0,8.0,58,0.00,,,0.00,0,HR-IXPWINDi_r2_v1.2.,2013-11-20 09:19:00,
2013-11-20 04:24:00,29.9,17.3,30.36,NNW,348,6.0,9.0,59,0.00,,,0.00,0,HR-IXPWINDi_r2_v1.2.,2013-11-20 09:24:00,
2013-11-20 04:29:00,29.9,17.3,30.37,NW,326,1.0,9.0,59,0.00,,,0.00,0,HR-IXPWINDi_r2_v1.2.,2013-11-20 09:29:00,
2013-11-20 04:34:00,29.9,17.7,30.37,North,355,4.0,9.0,60,0.00,,,0.00,0,HR-IXPWINDi_r2_v1.2.,2013-11-20 09:34:00,
2013-11-20 04:40:00,29.9,17.3,30.37,NNE,13,1.0,11.0,59,0.00,,,0.00,0,HR-IXPWINDi_r2_v1.2.,2013-11-20 09:40:00,
2013-11-20 04:45:00,29.8,17.6,30.38,North,5,4.0,12.0,60,0.00,,,0.00,0,HR-IXPWINDi_r2_v1.2.,2013-11-20 09:45:00,
2013-11-20 04:50:00,29.9,17.3,30.39,North,355,4.0,13.0,59,0.00,,,0.00,0,HR-IXPWINDi_r2_v1.2.,2013-11-20 09:50:00,
2013-11-20 04:55:00,29.8,17.2,30.39,NNW,340,5.0,13.0,59,0.00,,,0.00,0,HR-IXPWINDi_r2_v1.2.,2013-11-20 09:55:00,
2013-11-20 05:00:00,29.8,17.2,30.39,NNW,342,6.0,10.0,59,0.00,,,0.00,0,HR-IXPWINDi_r2_v1.2.,2013-11-20 10:00:00,
2013-11-20 05:06:00,29.7,17.5,30.39,NNE,29,9.0,9.0,60,0.00,,,0.00,0,HR-IXPWINDi_r2_v1.2.,2013-11-20 10:06:00,
2013-11-20 05:11:00,29.5,17.3,30.39,NNW,339,3.0,9.0,60,0.00,,,0.00,0,HR-IXPWINDi_r2_v1.2.,2013-11-20 10:11:00,
2013-11-20 05:16:00,29.4,17.2,30.40,North,350,3.0,9.0,60,0.00,,,0.00,0,HR-IXPWINDi_r2_v1.2.,2013-11-20 10:16:00,
2013-11-20 05:21:00,29.5,17.0,30.40,NNW,341,3.0,8.0,59,0.00,,,0.00,0,HR-IXPWINDi_r2_v1.2.,2013-11-20 10:21:00,
2013-11-20 05:26:00,29.4,16.9,30.41,North,355,2.0,8.0,59,0.00,,,0.00,0,HR-IXPWINDi_r2_v1.2.,2013-11-20 10:26:00,
2013-11-20 05:31:00,29.5,17.0,30.41,NNW,333,5.0,12.0,59,0.00,,,0.00,0,HR-IXPWINDi_r2_v1.2.,2013-11-20 10:31:00,
2013-11-20 05:37:00,29.5,17.0,30.41,NNW,333,5.0,12.0,59,0.00,,,0.00,0,HR-IXPWINDi_r2_v1.2.,2013-11-20 10:37:00,
2013-11-20 05:42:00,-999.0,99.9,30.41,North,-999,-999.0,-999.0,-999,99.99,,,0.00,,HR-IXPWINDi_r2_v1.2.,2013-11-20 10:42:00,
2013-11-20 05:47:00,-999.0,99.9,30.41,North,-999,-999.0,-999.0,-999,99.99,,,0.00,,HR-IXPWINDi_r2_v1.2.,2013-11-20 10:47:00,
2013-11-20 05:52:00,-999.0,99.9,30.41,North,-999,-999.0,-999.0,-999,99.99,,,0.00,,HR-IXPWINDi_r2_v1.2.,2013-11-20 10:52:00,
2013-11-20 05:57:00,-999.0,99.9,30.42,North,-999,-999.0,-999.0,-999,99.99,,,0.00,,HR-IXPWINDi_r2_v1.2.,2013-11-20 10:57:00,
2013-11-20 06:03:00,-999.0,99.9,30.42,North,-999,-999.0,-999.0,-999,99.99,,,0.00,,HR-IXPWINDi_r2_v1.2.,2013-11-20 11:03:00,
2013-11-20 06:08:00,-999.0,99.9,30.42,North,-999,-999.0,-999.0,-999,99.99,,,0.00,,HR-IXPWINDi_r2_v1.2.,2013-11-20 11:08:00,
2013-11-20 06:13:00,-999.0,99.9,30.43,North,-999,-999.0,-999.0,-999,99.99,,,0.00,,HR-IXPWINDi_r2_v1.2.,2013-11-20 11:13:00,
2013-11-20 06:18:00,-999.0,99.9,30.43,North,-999,-999.0,-999.0,-999,99.99,,,0.00,,HR-IXPWINDi_r2_v1.2.,2013-11-20 11:18:00,
2013-11-20 06:23:00,-999.0,99.9,30.43,North,-999,-999.0,-999.0,-999,99.99,,,0.00,,HR-IXPWINDi_r2_v1.2.,2013-11-20 11:23:00,
2013-11-20 06:29:00,-999.0,99.9,30.44,North,-999,-999.0,-999.0,-999,99.99,,,0.00,,HR-IXPWINDi_r2_v1.2.,2013-11-20 11:29:00,
2013-11-20 06:34:00,-999.0,99.9,30.44,North,-999,-999.0,-999.0,-999,99.99,,,0.00,,HR-IXPWINDi_r2_v1.2.,2013-11-20 11:34:00,
2013-11-20 06:39:00,-999.0,99.9,30.44,North,-999,-999.0,-999.0,-999,99.99,,,0.00,,HR-IXPWINDi_r2_v1.2.,2013-11-20 11:39:00,
2013-11-20 06:44:00,-999.0,99.9,30.44,North,-999,-999.0,-999.0,-999,99.99,,,0.00,,HR-IXPWINDi_r2_v1.2.,2013-11-20 11:44:00,
2013-11-20 06:49:00,-999.0,99.9,30.45,North,-999,-999.0,-999.0,-999,99.99,,,0.00,,HR-IXPWINDi_r2_v1.2.,2013-11-20 11:49:00,
2013-11-20 06:54:00,-999.0,99.9,30.45,North,-999,-999.0,-999.0,-999,99.99,,,0.00,,HR-IXPWINDi_r2_v1.2.,2013-11-20 11:54:00,
2013-11-20 07:00:00,-999.0,99.9,30.45,North,-999,-999.0,-999.0,-999,99.99,,,0.00,,HR-IXPWINDi_r2_v1.2.,2013-11-20 12:00:00,
2013-11-20 07:05:00,-999.0,99.9,30.45,North,-999,-999.0,-999.0,-999,99.99,,,0.00,,HR-IXPWINDi_r2_v1.2.,2013-11-20 12:05:00,
2013-11-20 07:10:00,-999.0,99.9,30.46,North,-999,-999.0,-999.0,-999,99.99,,,0.00,,HR-IXPWINDi_r2_v1.2.,2013-11-20 12:10:00,
2013-11-20 07:15:00,-999.0,99.9,30.46,North,-999,-999.0,-999.0,-999,99.99,,,0.00,,HR-IXPWINDi_r2_v1.2.,2013-11-20 12:15:00,
2013-11-20 07:20:00,-999.0,99.9,30.46,North,-999,-999.0,-999.0,-999,99.99,,,0.00,,HR-IXPWINDi_r2_v1.2.,2013-11-20 12:20:00,
2013-11-20 07:25:00,29.6,16.7,30.46,NNW,346,5.0,255.0,58,0.00,,,0.00,67,HR-IXPWINDi_r2_v1.2.,2013-11-20 12:25:00,
2013-11-20 07:31:00,29.7,16.3,30.46,NNW,330,2.0,255.0,57,0.00,,,0.00,81,HR-IXPWINDi_r2_v1.2.,2013-11-20 12:31:00,
2013-11-20 07:36:00,29.8,16.4,30.47,WNW,303,5.0,9.0,57,0.00,,,0.00,95,HR-IXPWINDi_r2_v1.2.,2013-11-20 12:36:00,
2013-11-20 07:41:00,30.1,16.3,30.46,NNW,328,8.0,12.0,56,0.00,,,0.00,111,HR-IXPWINDi_r2_v1.2.,2013-11-20 12:41:00,
2013-11-20 07:46:00,30.3,16.5,30.46,NNW,336,6.0,12.0,56,0.00,,,0.00,127,HR-IXPWINDi_r2_v1.2.,2013-11-20 12:46:00,
2013-11-20 07:51:00,30.5,16.7,30.47,NNW,329,8.0,11.0,56,0.00,,,0.00,142,HR-IXPWINDi_r2_v1.2.,2013-11-20 12:51:00,
2013-11-20 07:56:00,30.7,16.5,30.47,NW,323,6.0,13.0,55,0.00,,,0.00,160,HR-IXPWINDi_r2_v1.2.,2013-11-20 12:56:00,
2013-11-20 08:01:00,31.0,16.7,30.47,NNW,327,10.0,13.0,55,0.00,,,0.00,174,HR-IXPWINDi_r2_v1.2.,2013-11-20 13:01:00,
2013-11-20 08:06:00,31.2,16.5,30.47,NE,51,6.0,13.0,54,0.00,,,0.00,193,HR-IXPWINDi_r2_v1.2.,2013-11-20 13:06:00,
2013-11-20 08:12:00,31.4,16.3,30.48,NNW,331,5.0,15.0,53,0.00,,,0.00,209,HR-IXPWINDi_r2_v1.2.,2013-11-20 13:12:00,
2013-11-20 08:17:00,31.6,16.4,30.48,North,355,6.0,15.0,53,0.00,,,0.00,227,HR-IXPWINDi_r2_v1.2.,2013-11-20 13:17:00,
2013-11-20 08:22:00,32.0,16.4,30.49,NNW,340,11.0,14.0,52,0.00,,,0.00,243,HR-IXPWINDi_r2_v1.2.,2013-11-20 13:22:00,
2013-11-20 08:27:00,32.1,16.5,30.49,NNW,336,10.0,17.0,52,0.00,,,0.00,257,HR-IXPWINDi_r2_v1.2.,2013-11-20 13:27:00,
2013-11-20 08:32:00,32.2,16.6,30.49,NW,315,6.0,19.0,52,0.00,,,0.00,269,HR-IXPWINDi_r2_v1.2.,2013-11-20 13:32:00,
2013-11-20 08:38:00,32.4,16.3,30.49,North,5,8.0,24.0,51,0.00,,,0.00,283,HR-IXPWINDi_r2_v1.2.,2013-11-20 13:38:00,
2013-11-20 08:43:00,32.6,16.0,30.49,NNW,340,12.0,24.0,50,0.00,,,0.00,294,HR-IXPWINDi_r2_v1.2.,2013-11-20 13:43:00,
2013-11-20 08:48:00,32.8,16.2,30.50,North,360,11.0,16.0,50,0.00,,,0.00,304,HR-IXPWINDi_r2_v1.2.,2013-11-20 13:48:00,
2013-11-20 08:53:00,33.0,16.4,30.49,NNW,333,9.0,20.0,50,0.00,,,0.00,316,HR-IXPWINDi_r2_v1.2.,2013-11-20 13:53:00,
2013-11-20 08:58:00,33.1,16.0,30.49,North,360,7.0,22.0,49,0.00,,,0.00,327,HR-IXPWINDi_r2_v1.2.,2013-11-20 13:58:00,
2013-11-20 09:03:00,33.4,16.3,30.49,NNE,33,9.0,22.0,49,0.00,,,0.00,338,HR-IXPWINDi_r2_v1.2.,2013-11-20 14:03:00,
2013-11-20 09:09:00,33.8,16.2,30.50,NNW,329,5.0,19.0,48,0.00,,,0.00,346,HR-IXPWINDi_r2_v1.2.,2013-11-20 14:09:00,
2013-11-20 09:14:00,34.1,16.5,30.51,NW,325,11.0,19.0,48,0.00,,,0.00,357,HR-IXPWINDi_r2_v1.2.,2013-11-20 14:14:00,
2013-11-20 09:19:00,34.1,16.0,30.52,NW,322,6.0,16.0,47,0.00,,,0.00,366,HR-IXPWINDi_r2_v1.2.,2013-11-20 14:19:00,
2013-11-20 09:24:00,34.5,16.4,30.52,North,360,5.0,16.0,47,0.00,,,0.00,376,HR-IXPWINDi_r2_v1.2.,2013-11-20 14:24:00,
2013-11-20 09:30:00,35.0,16.3,30.51,NW,325,9.0,13.0,46,0.00,,,0.00,385,HR-IXPWINDi_r2_v1.2.,2013-11-20 14:30:00,
2013-11-20 09:35:00,35.0,15.8,30.52,North,360,5.0,14.0,45,0.00,,,0.00,396,HR-IXPWINDi_r2_v1.2.,2013-11-20 14:35:00,
2013-11-20 09:40:00,35.2,16.0,30.52,NNE,15,0.0,14.0,45,0.00,,,0.00,403,HR-IXPWINDi_r2_v1.2.,2013-11-20 14:40:00,
2013-11-20 09:45:00,35.7,15.9,30.53,WNW,298,6.0,13.0,44,0.00,,,0.00,411,HR-IXPWINDi_r2_v1.2.,2013-11-20 14:45:00,
2013-11-20 09:50:00,35.7,15.4,30.52,NNW,331,6.0,14.0,43,0.00,,,0.00,418,HR-IXPWINDi_r2_v1.2.,2013-11-20 14:50:00,
2013-11-20 09:56:00,36.2,15.3,30.52,NW,320,3.0,14.0,42,0.00,,,0.00,427,HR-IXPWINDi_r2_v1.2.,2013-11-20 14:56:00,
2013-11-20 10:01:00,36.4,15.0,30.52,NNW,330,10.0,14.0,41,0.00,,,0.00,432,HR-IXPWINDi_r2_v1.2.,2013-11-20 15:01:00,
2013-11-20 10:06:00,36.6,15.1,30.52,NNW,348,10.0,14.0,41,0.00,,,0.00,439,HR-IXPWINDi_r2_v1.2.,2013-11-20 15:06:00,
2013-11-20 10:11:00,36.7,15.2,30.52,NW,311,10.0,16.0,41,0.00,,,0.00,446,HR-IXPWINDi_r2_v1.2.,2013-11-20 15:11:00,
2013-11-20 10:16:00,36.9,14.8,30.53,North,360,13.0,16.0,40,0.00,,,0.00,452,HR-IXPWINDi_r2_v1.2.,2013-11-20 15:16:00,
2013-11-20 10:21:00,36.8,14.2,30.52,NNW,340,9.0,15.0,39,0.00,,,0.00,461,HR-IXPWINDi_r2_v1.2.,2013-11-20 15:21:00,
2013-11-20 10:26:00,37.1,15.0,30.52,WNW,282,8.0,15.0,40,0.00,,,0.00,461,HR-IXPWINDi_r2_v1.2.,2013-11-20 15:26:00,
2013-11-20 10:31:00,37.7,15.6,30.52,North,360,7.0,12.0,40,0.00,,,0.00,469,HR-IXPWINDi_r2_v1.2.,2013-11-20 15:31:00,
2013-11-20 10:36:00,37.8,14.5,30.53,North,349,10.0,12.0,38,0.00,,,0.00,469,HR-IXPWINDi_r2_v1.2.,2013-11-20 15:36:00,
2013-11-20 10:42:00,37.4,13.5,30.53,NNE,17,7.0,14.0,37,0.00,,,0.00,471,HR-IXPWINDi_r2_v1.2.,2013-11-20 15:42:00,
2013-11-20 10:47:00,37.9,14.0,30.53,NW,316,8.0,14.0,37,0.00,,,0.00,482,HR-IXPWINDi_r2_v1.2.,2013-11-20 15:47:00,
2013-11-20 10:52:00,38.0,14.1,30.52,NNE,15,6.0,14.0,37,0.00,,,0.00,461,HR-IXPWINDi_r2_v1.2.,2013-11-20 15:52:00,
2013-11-20 10:58:00,38.2,14.2,30.52,NNW,329,7.0,14.0,37,0.00,,,0.00,485,HR-IXPWINDi_r2_v1.2.,2013-11-20 15:58:00,
2013-11-20 11:03:00,38.4,14.4,30.52,NNW,327,4.0,14.0,37,0.00,,,0.00,490,HR-IXPWINDi_r2_v1.2.,2013-11-20 16:03:00,
2013-11-20 11:08:00,38.3,13.1,30.52,NNE,22,7.0,15.0,35,0.00,,,0.00,501,HR-IXPWINDi_r2_v1.2.,2013-11-20 16:08:00,
2013-11-20 11:13:00,38.8,14.1,30.52,NNW,336,9.0,15.0,36,0.00,,,0.00,457,HR-IXPWINDi_r2_v1.2.,2013-11-20 16:13:00,
2013-11-20 11:18:00,39.0,13.7,30.52,NNE,18,2.0,13.0,35,0.00,,,0.00,497,HR-IXPWINDi_r2_v1.2.,2013-11-20 16:18:00,
2013-11-20 11:24:00,39.4,14.0,30.51,NNE,20,6.0,13.0,35,0.00,,,0.00,504,HR-IXPWINDi_r2_v1.2.,2013-11-20 16:24:00,
2013-11-20 11:29:00,39.8,14.4,30.51,NNE,26,7.0,16.0,35,0.00,,,0.00,492,HR-IXPWINDi_r2_v1.2.,2013-11-20 16:29:00,
2013-11-20 11:34:00,39.7,13.6,30.52,NNW,341,6.0,16.0,34,0.00,,,0.00,490,HR-IXPWINDi_r2_v1.2.,2013-11-20 16:34:00,
2013-11-20 11:39:00,39.7,13.0,30.52,NNW,330,8.0,14.0,33,0.00,,,0.00,501,HR-IXPWINDi_r2_v1.2.,2013-11-20 16:39:00,
2013-11-20 11:45:00,39.8,13.1,30.51,North,355,11.0,17.0,33,0.00,,,0.00,494,HR-IXPWINDi_r2_v1.2.,2013-11-20 16:45:00,
2013-11-20 11:50:00,40.0,13.2,30.51,NNE,22,6.0,17.0,33,0.00,,,0.00,501,HR-IXPWINDi_r2_v1.2.,2013-11-20 16:50:00,
2013-11-20 11:55:00,40.3,14.2,30.52,North,360,6.0,13.0,34,0.00,,,0.00,443,HR-IXPWINDi_r2_v1.2.,2013-11-20 16:55:00,
2013-11-20 12:00:00,40.2,13.4,30.52,WNW,293,9.0,14.0,33,0.00,,,0.00,422,HR-IXPWINDi_r2_v1.2.,2013-11-20 17:00:00,
2013-11-20 12:05:00,40.2,13.4,30.52,NNE,28,10.0,16.0,33,0.00,,,0.00,352,HR-IXPWINDi_r2_v1.2.,2013-11-20 17:05:00,
2013-11-20 12:11:00,40.1,13.3,30.51,NNE,24,13.0,19.0,33,0.00,,,0.00,292,HR-IXPWINDi_r2_v1.2.,2013-11-20 17:11:00,
2013-11-20 12:17:00,39.9,13.1,30.52,WNW,300,7.0,19.0,33,0.00,,,0.00,309,HR-IXPWINDi_r2_v1.2.,2013-11-20 17:17:00,
2013-11-20 12:22:00,40.1,13.3,30.52,NNW,330,10.0,17.0,33,0.00,,,0.00,434,HR-IXPWINDi_r2_v1.2.,2013-11-20 17:22:00,
2013-11-20 12:27:00,40.6,13.8,30.52,NNE,32,6.0,14.0,33,0.00,,,0.00,422,HR-IXPWINDi_r2_v1.2.,2013-11-20 17:27:00,
2013-11-20 12:32:00,41.0,14.1,30.52,North,355,8.0,15.0,33,0.00,,,0.00,471,HR-IXPWINDi_r2_v1.2.,2013-11-20 17:32:00,
2013-11-20 12:37:00,40.9,11.9,30.51,North,10,7.0,15.0,30,0.00,,,0.00,466,HR-IXPWINDi_r2_v1.2.,2013-11-20 17:37:00,
2013-11-20 12:42:00,41.1,12.8,30.51,North,350,9.0,15.0,31,0.00,,,0.00,455,HR-IXPWINDi_r2_v1.2.,2013-11-20 17:42:00,
2013-11-20 12:48:00,41.1,12.1,30.51,NNE,17,9.0,14.0,30,0.00,,,0.00,450,HR-IXPWINDi_r2_v1.2.,2013-11-20 17:48:00,
2013-11-20 12:53:00,41.3,12.2,30.51,NNW,327,14.0,18.0,30,0.00,,,0.00,431,HR-IXPWINDi_r2_v1.2.,2013-11-20 17:53:00,
2013-11-20 12:58:00,41.5,11.6,30.51,NE,46,4.0,18.0,29,0.00,,,0.00,441,HR-IXPWINDi_r2_v1.2.,2013-11-20 17:58:00,
2013-11-20 13:03:00,41.4,12.3,30.51,NE,37,8.0,15.0,30,0.00,,,0.00,436,HR-IXPWINDi_r2_v1.2.,2013-11-20 18:03:00,
2013-11-20 13:08:00,41.8,12.7,30.51,NNW,337,9.0,12.0,30,0.00,,,0.00,427,HR-IXPWINDi_r2_v1.2.,2013-11-20 18:08:00,
2013-11-20 13:14:00,41.9,12.7,30.51,WNW,293,7.0,13.0,30,0.00,,,0.00,422,HR-IXPWINDi_r2_v1.2.,2013-11-20 18:14:00,
2013-11-20 13:19:00,41.9,12.7,30.50,NNW,342,9.0,16.0,30,0.00,,,0.00,411,HR-IXPWINDi_r2_v1.2.,2013-11-20 18:19:00,
2013-11-20 13:24:00,41.9,13.5,30.50,North,360,5.0,16.0,31,0.00,,,0.00,397,HR-IXPWINDi_r2_v1.2.,2013-11-20 18:24:00,
2013-11-20 13:29:00,42.4,13.2,30.51,NNE,22,5.0,17.0,30,0.00,,,0.00,388,HR-IXPWINDi_r2_v1.2.,2013-11-20 18:29:00,
2013-11-20 13:35:00,41.8,12.7,30.51,NNW,339,9.0,17.0,30,0.00,,,0.00,295,HR-IXPWINDi_r2_v1.2.,2013-11-20 18:35:00,
2013-11-20 13:40:00,41.8,13.4,30.51,NNW,340,8.0,17.0,31,0.00,,,0.00,309,HR-IXPWINDi_r2_v1.2.,2013-11-20 18:40:00,
2013-11-20 13:45:00,41.7,13.3,30.51,NNE,12,10.0,13.0,31,0.00,,,0.00,285,HR-IXPWINDi_r2_v1.2.,2013-11-20 18:45:00,
2013-11-20 13:50:00,42.0,13.6,30.50,NNW,342,5.0,12.0,31,0.00,,,0.00,304,HR-IXPWINDi_r2_v1.2.,2013-11-20 18:50:00,
2013-11-20 13:56:00,42.0,13.6,30.51,NW,321,9.0,16.0,31,0.00,,,0.00,332,HR-IXPWINDi_r2_v1.2.,2013-11-20 18:56:00,
2013-11-20 14:01:00,41.8,12.7,30.51,NNW,330,7.0,16.0,30,0.00,,,0.00,329,HR-IXPWINDi_r2_v1.2.,2013-11-20 19:01:00,
2013-11-20 14:06:00,42.0,13.6,30.51,NNW,335,7.0,14.0,31,0.00,,,0.00,274,HR-IXPWINDi_r2_v1.2.,2013-11-20 19:06:00,
2013-11-20 14:11:00,42.3,13.1,30.50,NNE,19,7.0,13.0,30,0.00,,,0.00,309,HR-IXPWINDi_r2_v1.2.,2013-11-20 19:11:00,
2013-11-20 14:17:00,42.1,12.9,30.49,North,360,8.0,13.0,30,0.00,,,0.00,285,HR-IXPWINDi_r2_v1.2.,2013-11-20 19:17:00,
2013-11-20 14:22:00,42.4,13.2,30.47,NNW,346,8.0,13.0,30,0.00,,,0.00,274,HR-IXPWINDi_r2_v1.2.,2013-11-20 19:22:00,
2013-11-20 14:27:00,42.7,14.2,30.47,NNW,343,10.0,12.0,31,0.00,,,0.00,248,HR-IXPWINDi_r2_v1.2.,2013-11-20 19:27:00,
2013-11-20 14:32:00,42.4,13.2,30.48,NW,323,10.0,12.0,30,0.00,,,0.00,253,HR-IXPWINDi_r2_v1.2.,2013-11-20 19:32:00,
2013-11-20 14:37:00,42.1,12.9,30.50,North,360,9.0,11.0,30,0.00,,,0.00,225,HR-IXPWINDi_r2_v1.2.,2013-11-20 19:37:00,
2013-11-20 14:43:00,41.9,13.5,30.52,NNW,335,11.0,14.0,31,0.00,,,0.00,214,HR-IXPWINDi_r2_v1.2.,2013-11-20 19:43:00,
2013-11-20 14:48:00,42.0,13.6,30.52,NNE,15,8.0,14.0,31,0.00,,,0.00,197,HR-IXPWINDi_r2_v1.2.,2013-11-20 19:48:00,
2013-11-20 14:53:00,42.2,13.0,30.51,NNW,344,10.0,14.0,30,0.00,,,0.00,186,HR-IXPWINDi_r2_v1.2.,2013-11-20 19:53:00,
2013-11-20 14:58:00,41.9,12.7,30.52,NNE,22,4.0,11.0,30,0.00,,,0.00,163,HR-IXPWINDi_r2_v1.2.,2013-11-20 19:58:00,
2013-11-20 15:03:00,41.8,12.7,30.52,NNW,342,2.0,13.0,30,0.00,,,0.00,146,HR-IXPWINDi_r2_v1.2.,2013-11-20 20:03:00,
2013-11-20 15:08:00,41.9,12.7,30.52,NNW,342,5.0,13.0,30,0.00,,,0.00,113,HR-IXPWINDi_r2_v1.2.,2013-11-20 20:08:00,
2013-11-20 15:13:00,41.6,12.5,30.52,North,360,6.0,12.0,30,0.00,,,0.00,114,HR-IXPWINDi_r2_v1.2.,2013-11-20 20:13:00,
2013-11-20 15:19:00,41.7,13.3,30.53,North,360,5.0,11.0,31,0.00,,,0.00,98,HR-IXPWINDi_r2_v1.2.,2013-11-20 20:19:00,
2013-11-20 15:24:00,41.6,13.2,30.53,North,5,4.0,8.0,31,0.00,,,0.00,83,HR-IXPWINDi_r2_v1.2.,2013-11-20 20:24:00,
2013-11-20 15:29:00,41.6,13.2,30.53,NW,324,8.0,9.0,31,0.00,,,0.00,67,HR-IXPWINDi_r2_v1.2.,2013-11-20 20:29:00,
2013-11-20 15:34:00,41.4,13.8,30.53,WNW,293,8.0,9.0,32,0.00,,,0.00,49,HR-IXPWINDi_r2_v1.2.,2013-11-20 20:34:00,
2013-11-20 15:40:00,41.2,13.6,30.53,NW,317,6.0,10.0,32,0.00,,,0.00,25,HR-IXPWINDi_r2_v1.2.,2013-11-20 20:40:00,
2013-11-20 15:45:00,41.0,13.4,30.53,North,355,3.0,10.0,32,0.00,,,0.00,23,HR-IXPWINDi_r2_v1.2.,2013-11-20 20:45:00,
2013-11-20 15:50:00,40.9,13.3,30.53,NNW,337,4.0,10.0,32,0.00,,,0.00,19,HR-IXPWINDi_r2_v1.2.,2013-11-20 20:50:00,
2013-11-20 15:55:00,40.9,13.3,30.53,North,355,3.0,8.0,32,0.00,,,0.00,18,HR-IXPWINDi_r2_v1.2.,2013-11-20 20:55:00,
2013-11-20 16:00:00,40.7,13.2,30.53,NW,322,3.0,9.0,32,0.00,,,0.00,14,HR-IXPWINDi_r2_v1.2.,2013-11-20 21:00:00,
2013-11-20 16:05:00,40.5,13.7,30.53,North,5,0.0,9.0,33,0.00,,,0.00,12,HR-IXPWINDi_r2_v1.2.,2013-11-20 21:05:00,
2013-11-20 16:10:00,40.5,13.7,30.54,WNW,297,4.0,6.0,33,0.00,,,0.00,9,HR-IXPWINDi_r2_v1.2.,2013-11-20 21:10:00,
2013-11-20 16:15:00,40.4,13.6,30.54,NW,325,1.0,4.0,33,0.00,,,0.00,5,HR-IXPWINDi_r2_v1.2.,2013-11-20 21:15:00,
2013-11-20 16:20:00,40.0,13.9,30.54,NNW,340,0.0,5.0,34,0.00,,,0.00,0,HR-IXPWINDi_r2_v1.2.,2013-11-20 21:20:00,
2013-11-20 16:25:00,39.7,14.3,30.54,NW,315,1.0,5.0,35,0.00,,,0.00,0,HR-IXPWINDi_r2_v1.2.,2013-11-20 21:25:00,
2013-11-20 16:30:00,39.4,14.0,30.55,NW,325,3.0,5.0,35,0.00,,,0.00,0,HR-IXPWINDi_r2_v1.2.,2013-11-20 21:30:00,
2013-11-20 16:36:00,39.2,13.9,30.55,NW,313,2.0,5.0,35,0.00,,,0.00,0,HR-IXPWINDi_r2_v1.2.,2013-11-20 21:36:00,
2013-11-20 16:41:00,39.1,13.8,30.55,North,355,2.0,5.0,35,0.00,,,0.00,0,HR-IXPWINDi_r2_v1.2.,2013-11-20 21:41:00,
2013-11-20 16:46:00,38.8,14.1,30.55,NNW,331,0.0,5.0,36,0.00,,,0.00,0,HR-IXPWINDi_r2_v1.2.,2013-11-20 21:46:00,
2013-11-20 16:51:00,38.7,14.1,30.55,NNW,331,3.0,4.0,36,0.00,,,0.00,0,HR-IXPWINDi_r2_v1.2.,2013-11-20 21:51:00,
2013-11-20 16:56:00,38.5,14.5,30.55,NNW,338,5.0,5.0,37,0.00,,,0.00,0,HR-IXPWINDi_r2_v1.2.,2013-11-20 21:56:00,
2013-11-20 17:02:00,38.2,14.2,30.56,NNW,333,1.0,5.0,37,0.00,,,0.00,0,HR-IXPWINDi_r2_v1.2.,2013-11-20 22:02:00,
2013-11-20 17:07:00,38.3,13.7,30.56,NNW,333,2.0,5.0,36,0.00,,,0.00,0,HR-IXPWINDi_r2_v1.2.,2013-11-20 22:07:00,
2013-11-20 17:12:00,38.3,13.7,30.56,NW,315,2.0,4.0,36,0.00,,,0.00,0,HR-IXPWINDi_r2_v1.2.,2013-11-20 22:12:00,
2013-11-20 17:17:00,37.9,14.6,30.56,NNW,342,4.0,5.0,38,0.00,,,0.00,0,HR-IXPWINDi_r2_v1.2.,2013-11-20 22:17:00,
2013-11-20 17:22:00,37.5,14.8,30.56,NNW,339,2.0,6.0,39,0.00,,,0.00,0,HR-IXPWINDi_r2_v1.2.,2013-11-20 22:22:00,
2013-11-20 17:27:00,37.6,14.3,30.57,NW,320,1.0,6.0,38,0.00,,,0.00,0,HR-IXPWINDi_r2_v1.2.,2013-11-20 22:27:00,
2013-11-20 17:33:00,37.6,14.3,30.57,NW,309,3.0,5.0,38,0.00,,,0.00,0,HR-IXPWINDi_r2_v1.2.,2013-11-20 22:33:00,
2013-11-20 17:38:00,37.5,14.2,30.57,NW,304,4.0,6.0,38,0.00,,,0.00,0,HR-IXPWINDi_r2_v1.2.,2013-11-20 22:38:00,
2013-11-20 17:43:00,37.4,14.1,30.57,NNW,343,2.0,6.0,38,0.00,,,0.00,0,HR-IXPWINDi_r2_v1.2.,2013-11-20 22:43:00,
2013-11-20 17:48:00,37.2,14.5,30.57,NNW,335,2.0,6.0,39,0.00,,,0.00,0,HR-IXPWINDi_r2_v1.2.,2013-11-20 22:48:00,
2013-11-20 17:53:00,37.0,14.4,30.57,NNW,329,4.0,5.0,39,0.00,,,0.00,0,HR-IXPWINDi_r2_v1.2.,2013-11-20 22:53:00,
2013-11-20 17:59:00,36.9,14.3,30.57,NNW,331,6.0,6.0,39,0.00,,,0.00,0,HR-IXPWINDi_r2_v1.2.,2013-11-20 22:59:00,
2013-11-20 18:04:00,36.9,14.3,30.57,NNW,343,5.0,8.0,39,0.00,,,0.00,0,HR-IXPWINDi_r2_v1.2.,2013-11-20 23:04:00,
2013-11-20 18:09:00,36.9,14.3,30.58,WNW,298,2.0,8.0,39,0.00,,,0.00,0,HR-IXPWINDi_r2_v1.2.,2013-11-20 23:09:00,
2013-11-20 18:14:00,36.9,14.3,30.58,WNW,296,2.0,5.0,39,0.00,,,0.00,0,HR-IXPWINDi_r2_v1.2.,2013-11-20 23:14:00,
2013-11-20 18:20:00,36.8,14.2,30.58,WNW,300,0.0,5.0,39,0.00,,,0.00,0,HR-IXPWINDi_r2_v1.2.,2013-11-20 23:20:00,
2013-11-20 18:25:00,36.8,14.2,30.58,NNW,335,5.0,5.0,39,0.00,,,0.00,0,HR-IXPWINDi_r2_v1.2.,2013-11-20 23:25:00,
2013-11-20 18:30:00,36.3,14.3,30.58,NNW,329,1.0,7.0,40,0.00,,,0.00,0,HR-IXPWINDi_r2_v1.2.,2013-11-20 23:30:00,
2013-11-20 18:35:00,36.3,14.3,30.58,NNW,338,4.0,7.0,40,0.00,,,0.00,0,HR-IXPWINDi_r2_v1.2.,2013-11-20 23:35:00,
2013-11-20 18:41:00,36.3,14.3,30.58,NNW,334,4.0,5.0,40,0.00,,,0.00,0,HR-IXPWINDi_r2_v1.2.,2013-11-20 23:41:00,
2013-11-20 18:46:00,36.1,14.1,30.58,NW,325,5.0,5.0,40,0.00,,,0.00,0,HR-IXPWINDi_r2_v1.2.,2013-11-20 23:46:00,
2013-11-20 18:51:00,36.1,14.1,30.58,NW,325,4.0,5.0,40,0.00,,,0.00,0,HR-IXPWINDi_r2_v1.2.,2013-11-20 23:51:00,
2013-11-20 18:56:00,35.7,14.3,30.59,NNW,331,2.0,5.0,41,0.00,,,0.00,0,HR-IXPWINDi_r2_v1.2.,2013-11-20 23:56:00,
2013-11-20 19:01:00,35.8,13.9,30.59,NNW,346,3.0,5.0,40,0.00,,,0.00,0,HR-IXPWINDi_r2_v1.2.,2013-11-21 00:01:00,
2013-11-20 19:07:00,35.7,14.3,30.59,NNW,332,3.0,5.0,41,0.00,,,0.00,0,HR-IXPWINDi_r2_v1.2.,2013-11-21 00:07:00,
2013-11-20 19:12:00,35.4,14.1,30.59,NNW,329,5.0,5.0,41,0.00,,,0.00,0,HR-IXPWINDi_r2_v1.2.,2013-11-21 00:12:00,
2013-11-20 19:17:00,35.3,14.5,30.59,NNW,340,5.0,5.0,42,0.00,,,0.00,0,HR-IXPWINDi_r2_v1.2.,2013-11-21 00:17:00,
2013-11-20 19:23:00,35.2,14.4,30.59,NNW,332,3.0,5.0,42,0.00,,,0.00,0,HR-IXPWINDi_r2_v1.2.,2013-11-21 00:23:00,
2013-11-20 19:28:00,35.4,14.1,30.60,NW,323,3.0,5.0,41,0.00,,,0.00,0,HR-IXPWINDi_r2_v1.2.,2013-11-21 00:28:00,
2013-11-20 19:34:00,35.1,14.3,30.60,NW,318,2.0,5.0,42,0.00,,,0.00,0,HR-IXPWINDi_r2_v1.2.,2013-11-21 00:34:00,
2013-11-20 19:40:00,34.9,14.7,30.60,NW,316,2.0,5.0,43,0.00,,,0.00,0,HR-IXPWINDi_r2_v1.2.,2013-11-21 00:40:00,
2013-11-20 19:45:00,34.8,14.1,30.60,NW,309,2.0,5.0,42,0.00,,,0.00,0,HR-IXPWINDi_r2_v1.2.,2013-11-21 00:45:00,
2013-11-20 19:51:00,34.8,14.6,30.60,WNW,295,5.0,5.0,43,0.00,,,0.00,0,HR-IXPWINDi_r2_v1.2.,2013-11-21 00:51:00,
2013-11-20 19:56:00,34.7,15.0,30.60,NW,320,4.0,5.0,44,0.00,,,0.00,0,HR-IXPWINDi_r2_v1.2.,2013-11-21 00:56:00,
2013-11-20 20:02:00,34.3,15.2,30.60,NW,316,3.0,5.0,45,0.00,,,0.00,0,HR-IXPWINDi_r2_v1.2.,2013-11-21 01:02:00,
2013-11-20 20:07:00,34.1,15.0,30.60,NNW,337,4.0,6.0,45,0.00,,,0.00,0,HR-IXPWINDi_r2_v1.2.,2013-11-21 01:07:00,
2013-11-20 20:12:00,34.2,15.1,30.60,NNW,345,3.0,6.0,45,0.00,,,0.00,0,HR-IXPWINDi_r2_v1.2.,2013-11-21 01:12:00,
2013-11-20 20:18:00,34.2,14.6,30.60,NNW,331,4.0,7.0,44,0.00,,,0.00,0,HR-IXPWINDi_r2_v1.2.,2013-11-21 01:18:00,
2013-11-20 20:23:00,34.3,14.7,30.60,WNW,301,3.0,7.0,44,0.00,,,0.00,0,HR-IXPWINDi_r2_v1.2.,2013-11-21 01:23:00,
2013-11-20 20:28:00,34.2,14.6,30.60,NNW,347,7.0,8.0,44,0.00,,,0.00,0,HR-IXPWINDi_r2_v1.2.,2013-11-21 01:28:00,
2013-11-20 20:34:00,34.1,14.5,30.60,NNW,330,4.0,8.0,44,0.00,,,0.00,0,HR-IXPWINDi_r2_v1.2.,2013-11-21 01:34:00,
2013-11-20 20:39:00,34.2,14.1,30.60,NW,321,4.0,8.0,43,0.00,,,0.00,0,HR-IXPWINDi_r2_v1.2.,2013-11-21 01:39:00,
2013-11-20 20:45:00,34.2,14.1,30.60,NW,323,5.0,8.0,43,0.00,,,0.00,0,HR-IXPWINDi_r2_v1.2.,2013-11-21 01:45:00,
2013-11-20 20:50:00,34.1,14.0,30.60,NW,306,2.0,8.0,43,0.00,,,0.00,0,HR-IXPWINDi_r2_v1.2.,2013-11-21 01:50:00,
2013-11-20 20:56:00,34.2,14.6,30.61,North,11,4.0,7.0,44,0.00,,,0.00,0,HR-IXPWINDi_r2_v1.2.,2013-11-21 01:56:00,
2013-11-20 21:01:00,34.0,14.4,30.60,North,5,4.0,7.0,44,0.00,,,0.00,0,HR-IXPWINDi_r2_v1.2.,2013-11-21 02:01:00,
2013-11-20 21:07:00,33.7,14.1,30.60,NNW,342,7.0,7.0,44,0.00,,,0.00,0,HR-IXPWINDi_r2_v1.2.,2013-11-21 02:07:00,
2013-11-20 21:12:00,33.7,14.1,30.61,NNE,14,5.0,8.0,44,0.00,,,0.00,0,HR-IXPWINDi_r2_v1.2.,2013-11-21 02:12:00,
2013-11-20 21:18:00,33.5,13.9,30.60,NNW,345,5.0,10.0,44,0.00,,,0.00,0,HR-IXPWINDi_r2_v1.2.,2013-11-21 02:18:00,
2013-11-20 21:23:00,33.4,14.4,30.60,NNW,344,5.0,10.0,45,0.00,,,0.00,0,HR-IXPWINDi_r2_v1.2.,2013-11-21 02:23:00,
2013-11-20 21:29:00,33.2,14.2,30.60,NNW,346,9.0,9.0,45,0.00,,,0.00,0,HR-IXPWINDi_r2_v1.2.,2013-11-21 02:29:00,
2013-11-20 21:35:00,33.0,14.5,30.60,North,5,6.0,9.0,46,0.00,,,0.00,0,HR-IXPWINDi_r2_v1.2.,2013-11-21 02:35:00,
2013-11-20 21:40:00,32.7,14.2,30.60,NNE,20,6.0,9.0,46,0.00,,,0.00,0,HR-IXPWINDi_r2_v1.2.,2013-11-21 02:40:00,
2013-11-20 21:46:00,32.7,14.2,30.60,NE,40,6.0,9.0,46,0.00,,,0.00,0,HR-IXPWINDi_r2_v1.2.,2013-11-21 02:46:00,
2013-11-20 21:51:00,32.6,14.6,30.60,NNE,13,7.0,9.0,47,0.00,,,0.00,0,HR-IXPWINDi_r2_v1.2.,2013-11-21 02:51:00,
2013-11-20 21:56:00,32.5,14.5,30.60,North,355,6.0,8.0,47,0.00,,,0.00,0,HR-IXPWINDi_r2_v1.2.,2013-11-21 02:56:00,
2013-11-20 22:02:00,32.4,14.4,30.61,North,5,4.0,8.0,47,0.00,,,0.00,0,HR-IXPWINDi_r2_v1.2.,2013-11-21 03:02:00,
2013-11-20 22:07:00,32.3,14.3,30.61,North,355,5.0,7.0,47,0.00,,,0.00,0,HR-IXPWINDi_r2_v1.2.,2013-11-21 03:07:00,
2013-11-20 22:13:00,32.1,14.2,30.61,North,355,4.0,7.0,47,0.00,,,0.00,0,HR-IXPWINDi_r2_v1.2.,2013-11-21 03:13:00,
2013-11-20 22:18:00,32.1,14.6,30.61,North,355,4.0,8.0,48,0.00,,,0.00,0,HR-IXPWINDi_r2_v1.2.,2013-11-21 03:18:00,
2013-11-20 22:23:00,32.0,14.6,30.61,North,5,6.0,8.0,48,0.00,,,0.00,0,HR-IXPWINDi_r2_v1.2.,2013-11-21 03:23:00,
2013-11-20 22:28:00,31.9,14.5,30.62,NNE,16,4.0,8.0,48,0.00,,,0.00,0,HR-IXPWINDi_r2_v1.2.,2013-11-21 03:28:00,
2013-11-20 22:34:00,31.9,14.5,30.61,North,360,7.0,8.0,48,0.00,,,0.00,0,HR-IXPWINDi_r2_v1.2.,2013-11-21 03:34:00,
2013-11-20 22:39:00,31.7,14.7,30.62,North,5,3.0,8.0,49,0.00,,,0.00,0,HR-IXPWINDi_r2_v1.2.,2013-11-21 03:39:00,
2013-11-20 22:45:00,31.8,14.8,30.62,North,5,5.0,8.0,49,0.00,,,0.00,0,HR-IXPWINDi_r2_v1.2.,2013-11-21 03:45:00,
2013-11-20 22:50:00,31.7,14.7,30.62,North,360,4.0,8.0,49,0.00,,,0.00,0,HR-IXPWINDi_r2_v1.2.,2013-11-21 03:50:00,
2013-11-20 22:56:00,31.7,14.3,30.62,North,5,5.0,8.0,48,0.00,,,0.00,0,HR-IXPWINDi_r2_v1.2.,2013-11-21 03:56:00,
2013-11-20 23:01:00,31.7,14.7,30.62,NNW,346,6.0,8.0,49,0.00,,,0.00,0,HR-IXPWINDi_r2_v1.2.,2013-11-21 04:01:00,
2013-11-20 23:06:00,31.8,14.4,30.62,NNW,344,6.0,9.0,48,0.00,,,0.00,0,HR-IXPWINDi_r2_v1.2.,2013-11-21 04:06:00,
2013-11-20 23:11:00,31.7,14.3,30.62,North,355,5.0,9.0,48,0.00,,,0.00,0,HR-IXPWINDi_r2_v1.2.,2013-11-21 04:11:00,
2013-11-20 23:17:00,31.7,14.3,30.62,North,351,6.0,8.0,48,0.00,,,0.00,0,HR-IXPWINDi_r2_v1.2.,2013-11-21 04:17:00,
2013-11-20 23:22:00,31.7,14.3,30.62,NNW,342,6.0,8.0,48,0.00,,,0.00,0,HR-IXPWINDi_r2_v1.2.,2013-11-21 04:22:00,
2013-11-20 23:28:00,31.6,14.2,30.62,North,355,5.0,8.0,48,0.00,,,0.00,0,HR-IXPWINDi_r2_v1.2.,2013-11-21 04:28:00,
2013-11-20 23:33:00,31.6,14.7,30.62,North,5,4.0,8.0,49,0.00,,,0.00,0,HR-IXPWINDi_r2_v1.2.,2013-11-21 04:33:00,
2013-11-20 23:38:00,31.5,14.6,30.62,NNW,341,5.0,9.0,49,0.00,,,0.00,0,HR-IXPWINDi_r2_v1.2.,2013-11-21 04:38:00,
2013-11-20 23:44:00,31.5,14.6,30.62,NNW,342,5.0,9.0,49,0.00,,,0.00,0,HR-IXPWINDi_r2_v1.2.,2013-11-21 04:44:00,
2013-11-20 23:49:00,31.5,14.6,30.62,NNW,333,5.0,9.0,49,0.00,,,0.00,0,HR-IXPWINDi_r2_v1.2.,2013-11-21 04:49:00,
2013-11-20 23:54:00,31.6,14.2,30.62,North,360,3.0,9.0,48,0.00,,,0.00,0,HR-IXPWINDi_r2_v1.2.,2013-11-21 04:54:00,
2013-11-20 23:59:00,31.7,14.3,30.62,North,355,7.0,9.0,48,0.00,,,0.00,0,HR-IXPWINDi_r2_v1.2.,2013-11-21 04:59:00,